Saginaw, MI

2:20 PM EDT on June 25, 2017 (GMT -0400)
MBS International

Weather History for KMBS - December, 2011

Change the Weather History Date:

Friday, December 23, 2011

  Actual Average Record
Temperature  
Mean Temperature 24 °F 25 °F  
Max Temperature 28 °F 31 °F 62 °F (2015)
Min Temperature 21 °F 19 °F 0 °F (2000)
Degree Days  
Heating Degree Days 40    
Month to date heating degree days  
Since 1 July heating degree days  
Cooling Degree Days 0    
Month to date cooling degree days  
Year to date cooling degree days  
Moisture  
Dew Point 17 °F    
Average Humidity 70    
Maximum Humidity 88    
Minimum Humidity 63    
Precipitation  
Precipitation 0.00 in 0.06 in 0.44 in (1996)
Month to date precipitation 1.41  
Year to date precipitation 31.09  
Snow  
Snow 0.00 in - - ()
Month to date snowfall  
Since 1 July snowfall  
Snow Depth -    
Sea Level Pressure  
Sea Level Pressure 30.28 in    
Wind  
Wind Speed 9 mph (South)    
Max Wind Speed 16 mph    
Max Gust Speed -    
Visibility 9 miles    
Events Snow    
T = Trace of Precipitation, MM = Missing Value Source: NWS Daily Summary

Daily Weather History Graph

Daily Weather History Graph

Search for Another Location

Airport or City:

Trip Planner

Search our weather history database for the weather conditions in past years. The results will help you decide how hot, cold, wet, or windy it might be!

Date:

Astronomy

Dec. 23, 2011 Rise Set
Actual Time 8:07 AM EST 5:03 PM EST
Civil Twilight 7:34 AM EST 5:36 PM EST
Nautical Twilight 6:58 AM EST 6:12 PM EST
Astronomical Twilight 6:23 AM EST 6:47 PM EST
Moon 6:55 AM EST (12/23) 4:11 PM EST (12/23)
Length of Visible Light 10h 02m
Length of Day
8h 56m
Waning Crescent, 1% of the Moon is Illuminated
Dec 23
Waning Crescent
Dec 24
New
Jan 1
First Quarter
Jan 9
Full
Jan 16
Last Quarter

Hourly Weather History & Observations

Time (EST) Temp. Windchill Dew Point Humidity Pressure Visibility Wind Dir Wind Speed Gust Speed Precip Events Conditions
12:17 AM 28.4 °F 16.6 °F 19.4 °F 69% 30.18 in 10.0 mi North 16.1 mph - N/A   Overcast
12:53 AM 27.0 °F 15.6 °F 17.1 °F 66% 30.22 in 10.0 mi NNW 13.8 mph - N/A   Overcast
1:53 AM 25.0 °F 13.1 °F 14.0 °F 63% 30.24 in 10.0 mi North 13.8 mph - N/A   Overcast
2:53 AM 25.0 °F 14.2 °F 14.0 °F 63% 30.25 in 10.0 mi North 11.5 mph - N/A   Overcast
3:53 AM 23.0 °F 13.1 °F 12.9 °F 65% 30.27 in 10.0 mi North 9.2 mph - N/A   Clear
4:53 AM 21.0 °F 13.4 °F 14.0 °F 74% 30.29 in 10.0 mi NNW 5.8 mph - N/A   Scattered Clouds
5:53 AM 21.0 °F 13.4 °F 14.0 °F 74% 30.30 in 10.0 mi NW 5.8 mph - N/A   Overcast
6:53 AM 23.0 °F 17.0 °F 14.0 °F 68% 30.29 in 10.0 mi NW 4.6 mph - N/A   Overcast
7:53 AM 23.0 °F 15.8 °F 15.1 °F 72% 30.32 in 10.0 mi NNW 5.8 mph - N/A   Overcast
8:53 AM 24.1 °F 18.2 °F 15.1 °F 69% 30.33 in 10.0 mi NNW 4.6 mph - N/A   Overcast
9:53 AM 24.1 °F - 14.0 °F 65% 30.35 in 10.0 mi Calm Calm - N/A   Overcast
10:53 AM 25.0 °F - 14.0 °F 63% 30.36 in 10.0 mi Calm Calm - N/A   Overcast
11:27 AM 24.8 °F 17.9 °F 15.8 °F 69% 30.32 in 10.0 mi SSE 5.8 mph - N/A   Overcast
11:53 AM 26.1 °F 20.5 °F 15.1 °F 63% 30.35 in 10.0 mi SSW 4.6 mph - N/A   Overcast
12:53 PM 26.6 °F 19.1 °F 15.8 °F 64% 30.28 in 10.0 mi SSE 6.9 mph - N/A   Overcast
1:53 PM 28.9 °F 22.8 °F 18.0 °F 64% 30.30 in 10.0 mi South 5.8 mph - N/A   Overcast
2:53 PM 28.9 °F 21.1 °F 18.0 °F 64% 30.28 in 10.0 mi South 8.1 mph - N/A   Scattered Clouds
3:53 PM 28.9 °F 21.9 °F 18.0 °F 64% 30.28 in 10.0 mi South 6.9 mph - N/A   Overcast
4:53 PM 28.4 °F 21.2 °F 17.6 °F 64% 30.24 in 10.0 mi SSE 6.9 mph - N/A   Scattered Clouds
5:53 PM 28.9 °F 22.8 °F 19.0 °F 67% 30.28 in 10.0 mi SSE 5.8 mph - N/A   Overcast
6:53 PM 28.9 °F 19.8 °F 18.0 °F 64% 30.28 in 10.0 mi South 10.4 mph - N/A   Mostly Cloudy
7:53 PM 28.0 °F 20.0 °F 19.0 °F 69% 30.28 in 10.0 mi South 8.1 mph - N/A   Overcast
8:53 PM 28.0 °F 20.8 °F 19.9 °F 72% 30.27 in 5.0 mi South 6.9 mph - 0.00 in Snow Light Snow
9:31 PM 26.6 °F 18.2 °F 21.2 °F 80% 30.25 in 2.5 mi South 8.1 mph - 0.00 in Snow Light Snow
9:53 PM 26.1 °F 18.4 °F 23.0 °F 88% 30.27 in 2.5 mi South 6.9 mph - 0.00 in Snow Light Snow
10:12 PM 26.6 °F 18.2 °F 23.0 °F 86% 30.24 in 3.0 mi South 8.1 mph - 0.00 in Snow Light Snow
10:53 PM 26.1 °F 17.6 °F 23.0 °F 88% 30.27 in 10.0 mi SSE 8.1 mph - 0.00 in   Overcast
11:53 PM 27.0 °F 18.0 °F 23.0 °F 85% 30.27 in 5.0 mi South 9.2 mph - 0.00 in Snow Light Snow